Location: St. Louis
(38.6270°N, 90.1994°W)
Time: 23:32:58
(UTC-05:00)

ISS - Pass Details

Date: 13 March 2014
Orbit: 402 x 403 km, 51.6° (Epoch: 30 June)

Event Time Altitude Azimuth Distance (km) Brightness Sun altitude
Exits shadow 05:42:32 52° 199° (SSW) 534 -3.0 -18.8°
Maximum altitude 05:43:11 69° 139° (SE) 456 -3.1 -18.7°
Drops below altitude 10° 05:46:33 10° 55° (NE) 1,506 0.6 -18.1°
Sets 05:48:39 0° 53° (NE) 2,366 1.7 -17.7°
